Simultaneous Nadir Overpasses (SNOs) Predictions

Prediction of SNOs between GOES-17 and TERRA Satellite Orbit:

Table of predicted SNOs for the next 14.0 days since TLE Epoch: 7/1/2023
Index Date Time (GOES-17) GOES-17 Lat,Lon TERRA Lat,Lon Distance(km) Time Diff (sec)
1 07/02/2023 04:45:33 0.00,-104.71 0.85,-100.61 465.74 80
2 07/02/2023 17:05:44 -0.00,-104.74 0.15,-105.51 87.99 80
3 07/04/2023 16:52:01 -0.00,-104.73 -0.67,-101.56 360.91 80
4 07/05/2023 05:12:20 0.00,-104.70 -0.40,-106.49 203.98 80
5 07/07/2023 04:53:17 -0.00,-104.69 0.44,-102.53 245.27 80
6 07/07/2023 17:13:28 0.00,-104.72 0.56,-107.44 308.93 80
7 07/09/2023 16:59:44 0.00,-104.72 -0.24,-103.48 141.08 80
8 07/10/2023 05:20:03 -0.00,-104.70 -0.76,-108.42 422.78 80
9 07/12/2023 05:01:00 -0.00,-104.70 0.06,-104.46 27.23 80
10 07/14/2023 04:44:36 0.00,-104.69 0.90,-100.50 477.11 80
11 07/14/2023 17:04:45 -0.00,-104.72 0.17,-105.39 77.66 80
